Torna al catalogo

STARLINK-3511

AttivoComunicazioniVLEO
NORAD 51752·PAYLOAD·🇺🇸 United States

Lanciato Feb 21, 2022 da Cape Canaveral Space Force Station

Loading…

Prossimi Passaggi (prossime 24 ore)

TLE

AggiornatoSource: CelesTrak SupGP

Epoca: Sep 14, 2026, 20:32 UTC

1 51752C 22016AQ  26257.85604167 -.00027589  00000+0 -88704-3 0  2579
2 51752  53.1581 165.0282 0001368  93.3479 271.1334 15.31720523    13

Traccia STARLINK-3511 in tempo reale con AllMySat

Download on the App Store